Location: Unspecified
(37.6100°N, 2.7800°W)
Time: 21:09:18
(UTC+00:00)

OTV 5 (USA 277) - Visible Passes

Search period start: 16 February 2019 00:00
Search period end: 26 February 2019 00:00
Orbit: 342 x 346 km, 54.5° (Epoch: 09 February)

Date Brightness Start Highest point End Pass type
(mag) Time Alt. Az. Time Alt. Az. Time Alt. Az.
16 Feb ? 05:44:38 36° NW 05:45:39 84° NE 05:48:31 10° SE visible
17 Feb ? 04:36:34 11° E 04:36:34 11° E 04:36:41 10° E visible
17 Feb ? 06:08:02 17° W 06:09:10 22° SW 06:11:28 10° S visible
18 Feb ? 05:00:06 18° SE 05:00:06 18° SE 05:00:57 10° SE visible
19 Feb ? 05:23:48 11° S 05:23:48 11° S 05:23:57 10° S visible
21 Feb ? 19:21:28 10° S 19:22:24 16° S 19:22:24 16° S visible
22 Feb ? 19:44:36 10° SW 19:46:12 29° WSW 19:46:12 29° WSW visible
23 Feb ? 18:33:57 10° S 18:36:21 24° SE 18:38:23 12° ENE visible
23 Feb ? 20:08:57 10° W 20:09:51 15° WNW 20:09:51 15° WNW visible
24 Feb ? 18:57:01 10° SW 18:59:53 76° NW 19:01:55 17° NE visible
25 Feb ? 19:21:19 10° W 19:23:38 22° NW 19:25:18 14° N visible
